Time,TemperatureF,DewpointF,PressureIn,WindDirection,WindDirectionDegrees,WindSpeedMPH,WindSpeedGustMPH,Humidity,HourlyPrecipIn,Conditions,Clouds,dailyrainin,SoftwareType,DateUTC
2013-03-23 00:00:00,30.4,23.4,29.99,South,191,0.0,0.0,75,0.00,OVC,,0.02,WeatherDisplay:10.37,2013-03-23 04:00:00,
2013-03-23 00:05:00,30.3,23.5,29.99,South,190,0.0,0.0,75,0.00,,OVC049,0.00,VWS V14.01,2013-03-23 04:05:00,
2013-03-23 00:10:00,30.2,23.2,29.99,South,191,0.0,0.0,75,0.00,OVC,,0.00,WeatherDisplay:10.37,2013-03-23 04:10:00,
2013-03-23 00:15:00,30.4,23.4,29.99,South,191,0.0,0.0,75,0.00,OVC,,0.00,WeatherDisplay:10.37,2013-03-23 04:15:00,
2013-03-23 00:20:00,30.5,23.5,29.98,South,190,0.0,0.0,75,0.00,,OVC049,0.00,VWS V14.01,2013-03-23 04:20:00,
2013-03-23 00:25:00,30.5,23.5,29.99,South,190,0.0,0.0,75,0.00,,OVC049,0.00,VWS V14.01,2013-03-23 04:25:00,
2013-03-23 00:30:00,30.3,23.3,29.99,SSW,208,0.0,0.1,75,0.00,OVC,,0.00,WeatherDisplay:10.37,2013-03-23 04:30:00,
2013-03-23 00:35:00,30.3,23.2,29.99,SSE,160,0.6,2.4,75,0.00,,OVC049,0.00,VWS V14.01,2013-03-23 04:35:00,
2013-03-23 00:40:00,30.2,23.2,29.99,SSE,161,0.0,0.0,75,0.00,OVC,,0.00,WeatherDisplay:10.37,2013-03-23 04:40:00,
2013-03-23 00:45:00,30.3,23.3,29.98,SSE,160,0.6,0.0,75,0.00,,OVC049,0.00,VWS V14.01,2013-03-23 04:45:00,
2013-03-23 00:50:00,30.0,23.1,29.99,SSE,160,0.6,0.0,75,0.00,,OVC049,0.00,VWS V14.01,2013-03-23 04:50:00,
2013-03-23 00:55:00,30.1,23.1,29.99,SSE,161,0.0,0.0,75,0.00,OVC,,0.00,WeatherDisplay:10.37,2013-03-23 04:55:00,
2013-03-23 01:00:00,29.9,22.9,29.99,SSE,161,0.0,0.0,75,0.00,OVC,,0.00,WeatherDisplay:10.37,2013-03-23 05:00:00,
2013-03-23 01:01:00,28.3,25.5,29.98,NE,44,5.7,8.4,89,0.00,,CLR,0.00,VWS V14.01,2013-03-23 05:01:00,
2013-03-23 01:02:00,28.2,25.4,29.98,North,359,5.2,8.4,89,0.00,,CLR,0.00,VWS V14.01,2013-03-23 05:02:00,
2013-03-23 01:03:00,28.0,25.4,29.98,North,354,6.3,8.4,90,0.00,,CLR,0.00,VWS V14.01,2013-03-23 05:03:00,
2013-03-23 01:04:00,28.0,25.2,29.98,NE,48,5.5,8.4,89,0.00,,CLR,0.00,VWS V14.01,2013-03-23 05:04:00,
2013-03-23 01:05:00,29.7,23.1,29.99,SSE,161,0.0,0.0,76,0.00,SCT,,0.00,WeatherDisplay:10.37,2013-03-23 05:05:00,
2013-03-23 01:06:00,27.9,25.0,29.98,NNE,14,6.6,8.6,89,0.00,,CLR,0.00,VWS V14.01,2013-03-23 05:06:00,
2013-03-23 01:07:00,28.0,25.1,29.98,NE,41,8.0,8.6,89,0.00,,CLR,0.00,VWS V14.01,2013-03-23 05:07:00,
2013-03-23 01:08:00,28.0,25.1,29.98,NE,34,4.4,8.6,89,0.00,,CLR,0.00,VWS V14.01,2013-03-23 05:08:00,
2013-03-23 01:09:00,28.1,25.2,29.97,NNE,17,2.4,8.6,89,0.00,,CLR,0.00,VWS V14.01,2013-03-23 05:09:00,
2013-03-23 01:10:00,29.5,22.8,30.00,SSE,160,0.6,0.0,76,0.00,,SCT047,0.00,VWS V14.01,2013-03-23 05:10:00,
2013-03-23 01:11:00,27.9,25.1,29.97,NNE,32,6.2,10.0,89,0.00,,CLR,0.00,VWS V14.01,2013-03-23 05:11:00,
2013-03-23 01:12:00,28.1,25.3,29.97,North,359,4.8,10.0,89,0.00,,CLR,0.00,VWS V14.01,2013-03-23 05:12:00,
2013-03-23 01:13:00,27.8,25.3,29.97,NE,34,4.7,10.0,89,0.00,,CLR,0.00,VWS V14.01,2013-03-23 05:13:00,
2013-03-23 01:14:00,27.8,25.1,29.97,North,10,5.1,10.0,89,0.00,,CLR,0.00,VWS V14.01,2013-03-23 05:14:00,
2013-03-23 01:15:00,29.5,22.9,30.00,SSE,161,0.0,0.0,76,0.00,SCT,,0.00,WeatherDisplay:10.37,2013-03-23 05:15:00,
2013-03-23 01:16:00,27.9,25.1,29.97,NNE,28,5.1,9.1,89,0.00,,CLR,0.00,VWS V14.01,2013-03-23 05:16:00,
2013-03-23 01:17:00,27.8,25.0,29.97,NNE,24,3.7,9.1,89,0.00,,CLR,0.00,VWS V14.01,2013-03-23 05:17:00,
2013-03-23 01:18:00,27.9,25.1,29.97,NE,44,4.3,9.1,89,0.00,,CLR,0.00,VWS V14.01,2013-03-23 05:18:00,
2013-03-23 01:19:00,27.9,25.1,29.97,NNE,30,4.7,9.1,89,0.00,,CLR,0.00,VWS V14.01,2013-03-23 05:19:00,
2013-03-23 01:20:00,29.6,23.0,30.00,SSE,161,0.0,0.0,76,0.00,SCT,,0.00,WeatherDisplay:10.37,2013-03-23 05:20:00,
2013-03-23 01:21:00,27.9,25.2,29.97,NNE,22,2.6,8.1,89,0.00,,CLR,0.00,VWS V14.01,2013-03-23 05:21:00,
2013-03-23 01:22:00,28.0,25.4,29.97,North,1,8.5,8.5,90,0.00,,CLR,0.00,VWS V14.01,2013-03-23 05:22:00,
2013-03-23 01:23:00,27.8,25.1,29.96,NE,39,3.6,8.1,89,0.00,,CLR,0.00,VWS V14.01,2013-03-23 05:23:00,
2013-03-23 01:24:00,27.9,25.1,29.96,NNE,20,7.8,8.1,89,0.00,,CLR,0.00,VWS V14.01,2013-03-23 05:24:00,
2013-03-23 01:25:00,29.6,22.8,30.00,SSE,160,0.6,0.0,75,0.00,,SCT047,0.00,VWS V14.01,2013-03-23 05:25:00,
2013-03-23 01:26:00,28.0,25.2,29.96,North,3,5.0,9.4,89,0.00,,CLR,0.00,VWS V14.01,2013-03-23 05:26:00,
2013-03-23 01:27:00,27.9,25.1,29.96,NNE,15,7.9,9.4,89,0.00,,CLR,0.00,VWS V14.01,2013-03-23 05:27:00,
2013-03-23 01:28:00,27.9,25.0,29.96,NE,34,5.0,9.4,89,0.00,,CLR,0.00,VWS V14.01,2013-03-23 05:28:00,
2013-03-23 01:29:00,27.9,25.0,29.96,NE,42,5.2,9.4,89,0.00,,CLR,0.00,VWS V14.01,2013-03-23 05:29:00,
2013-03-23 01:30:00,29.7,22.7,30.00,SSE,161,0.0,0.0,75,0.00,SCT,,0.00,WeatherDisplay:10.37,2013-03-23 05:30:00,
2013-03-23 01:31:00,28.1,25.2,29.96,North,10,3.7,10.6,89,0.00,,CLR,0.00,VWS V14.01,2013-03-23 05:31:00,
2013-03-23 01:32:00,27.9,25.1,29.96,NNE,24,5.8,10.6,89,0.00,,CLR,0.00,VWS V14.01,2013-03-23 05:32:00,
2013-03-23 01:33:00,27.9,25.1,29.96,NE,34,5.2,10.6,89,0.00,,CLR,0.00,VWS V14.01,2013-03-23 05:33:00,
2013-03-23 01:34:00,28.0,25.0,29.96,NE,49,5.0,10.6,89,0.00,,CLR,0.00,VWS V14.01,2013-03-23 05:34:00,
2013-03-23 01:35:00,29.6,22.7,30.00,SSE,160,0.6,0.0,75,0.00,,SCT047,0.00,VWS V14.01,2013-03-23 05:35:00,
2013-03-23 01:36:00,28.0,25.2,29.96,NE,38,5.4,7.6,89,0.00,,CLR,0.00,VWS V14.01,2013-03-23 05:36:00,
2013-03-23 01:37:00,27.8,25.0,29.96,NE,34,4.5,7.6,89,0.00,,CLR,0.00,VWS V14.01,2013-03-23 05:37:00,
2013-03-23 01:38:00,27.9,25.2,29.96,NE,35,5.5,7.6,89,0.00,,CLR,0.00,VWS V14.01,2013-03-23 05:38:00,
2013-03-23 01:39:00,27.9,25.1,29.96,NE,41,4.5,7.6,89,0.00,,CLR,0.00,VWS V14.01,2013-03-23 05:39:00,
2013-03-23 01:40:00,29.7,22.9,30.00,SSE,160,0.6,0.0,75,0.00,,SCT047,0.00,VWS V14.01,2013-03-23 05:40:00,
2013-03-23 01:41:00,27.8,25.0,29.96,NNE,32,6.2,8.3,89,0.00,,CLR,0.00,VWS V14.01,2013-03-23 05:41:00,
2013-03-23 01:42:00,28.0,25.2,29.96,NNE,21,2.8,8.3,89,0.00,,CLR,0.00,VWS V14.01,2013-03-23 05:42:00,
2013-03-23 01:43:00,27.9,25.1,29.96,NNE,15,5.2,8.3,89,0.00,,CLR,0.00,VWS V14.01,2013-03-23 05:43:00,
2013-03-23 01:44:00,27.8,25.0,29.95,NE,41,4.6,8.3,89,0.00,,CLR,0.00,VWS V14.01,2013-03-23 05:44:00,
2013-03-23 01:45:00,29.7,23.1,30.00,SSE,161,0.0,0.0,76,0.00,SCT,,0.00,WeatherDisplay:10.37,2013-03-23 05:45:00,
2013-03-23 01:46:00,27.7,24.9,29.95,NE,42,7.8,9.1,89,0.00,,CLR,0.00,VWS V14.01,2013-03-23 05:46:00,
2013-03-23 01:47:00,27.8,25.1,29.95,North,352,8.6,9.1,89,0.00,,CLR,0.00,VWS V14.01,2013-03-23 05:47:00,
2013-03-23 01:48:00,27.8,25.0,29.96,NE,46,6.3,9.1,89,0.00,,CLR,0.00,VWS V14.01,2013-03-23 05:48:00,
2013-03-23 01:49:00,27.6,24.9,29.96,NE,39,3.4,9.1,89,0.00,,CLR,0.00,VWS V14.01,2013-03-23 05:49:00,
2013-03-23 01:50:00,29.8,22.8,30.00,SSE,161,0.0,0.0,75,0.00,SCT,,0.00,WeatherDisplay:10.37,2013-03-23 05:50:00,
2013-03-23 01:51:00,27.7,25.0,29.96,NNE,24,4.5,9.6,89,0.00,,CLR,0.00,VWS V14.01,2013-03-23 05:51:00,
2013-03-23 01:52:00,27.7,25.0,29.96,NNE,24,2.9,9.6,89,0.00,,CLR,0.00,VWS V14.01,2013-03-23 05:52:00,
2013-03-23 01:53:00,27.7,25.1,29.96,North,4,3.0,9.6,89,0.00,,CLR,0.00,VWS V14.01,2013-03-23 05:53:00,
2013-03-23 01:54:00,27.6,25.0,29.95,North,8,5.6,9.6,89,0.00,,CLR,0.00,VWS V14.01,2013-03-23 05:54:00,
2013-03-23 01:55:00,29.5,22.8,30.00,SSE,160,0.6,0.0,76,0.00,,SCT047,0.00,VWS V14.01,2013-03-23 05:55:00,
2013-03-23 01:56:00,27.7,25.0,29.95,NNE,24,5.4,9.3,89,0.00,,CLR,0.00,VWS V14.01,2013-03-23 05:56:00,
2013-03-23 01:57:00,27.7,25.0,29.95,NE,35,6.0,9.3,89,0.00,,CLR,0.00,VWS V14.01,2013-03-23 05:57:00,
2013-03-23 01:58:00,27.7,25.0,29.95,NNE,32,4.2,9.3,89,0.00,,CLR,0.00,VWS V14.01,2013-03-23 05:58:00,
2013-03-23 01:59:00,27.7,25.0,29.96,ENE,58,6.6,9.3,89,0.00,,CLR,0.00,VWS V14.01,2013-03-23 05:59:00,
2013-03-23 02:00:00,29.5,22.8,30.00,SSE,160,0.6,0.0,76,0.00,,CLR,0.00,VWS V14.01,2013-03-23 06:00:00,
2013-03-23 02:05:00,29.5,22.9,30.00,SSE,160,0.6,0.0,76,0.00,,CLR,0.00,VWS V14.01,2013-03-23 06:05:00,
2013-03-23 02:10:00,29.4,22.8,30.00,SSE,160,0.6,0.0,76,0.00,,CLR,0.00,VWS V14.01,2013-03-23 06:10:00,
2013-03-23 02:15:00,29.4,22.8,30.00,SSE,161,0.0,0.0,76,0.00,SCT,,0.00,WeatherDisplay:10.37,2013-03-23 06:15:00,
2013-03-23 02:20:00,29.4,23.2,30.00,SSE,160,0.6,0.0,76,0.00,,CLR,0.00,VWS V14.01,2013-03-23 06:20:00,
2013-03-23 02:25:00,29.6,23.0,30.00,SSE,161,0.0,0.0,76,0.00,SCT,,0.00,WeatherDisplay:10.37,2013-03-23 06:25:00,
2013-03-23 02:30:00,29.5,23.2,30.00,SSE,161,0.0,0.0,77,0.00,SCT,,0.00,WeatherDisplay:10.37,2013-03-23 06:30:00,
2013-03-23 02:35:00,29.7,23.4,29.99,SSE,161,0.0,0.0,77,0.00,SCT,,0.00,WeatherDisplay:10.37,2013-03-23 06:35:00,
2013-03-23 02:40:00,29.7,23.4,29.99,SSE,161,0.0,0.0,77,0.00,SCT,,0.00,WeatherDisplay:10.37,2013-03-23 06:40:00,
2013-03-23 02:45:00,29.6,23.3,29.99,SSE,160,0.6,0.0,77,0.00,,CLR,0.00,VWS V14.01,2013-03-23 06:45:00,
2013-03-23 02:50:00,29.4,23.4,29.99,SSE,161,0.0,0.0,78,0.00,SCT,,0.00,WeatherDisplay:10.37,2013-03-23 06:50:00,
2013-03-23 02:55:00,29.4,23.4,29.99,SSE,160,0.6,0.0,78,0.00,,CLR,0.00,VWS V14.01,2013-03-23 06:55:00,
2013-03-23 03:00:00,29.4,23.4,29.99,SSE,160,0.6,0.0,78,0.00,,CLR,0.00,VWS V14.01,2013-03-23 07:00:00,
2013-03-23 03:05:00,29.2,23.3,29.98,SSE,160,0.6,0.0,78,0.00,,CLR,0.00,VWS V14.01,2013-03-23 07:05:00,
2013-03-23 03:10:00,29.2,23.2,29.98,SSE,161,0.0,0.0,78,0.00,CLR,,0.00,WeatherDisplay:10.37,2013-03-23 07:10:00,
2013-03-23 03:15:00,29.0,23.0,29.99,SSE,161,0.0,0.0,78,0.00,CLR,,0.00,WeatherDisplay:10.37,2013-03-23 07:15:00,
2013-03-23 03:20:00,28.9,23.2,29.98,SSE,160,0.6,0.0,79,0.00,,CLR,0.00,VWS V14.01,2013-03-23 07:20:00,
2013-03-23 03:25:00,28.8,23.1,29.99,SSE,161,0.0,0.0,79,0.00,CLR,,0.00,WeatherDisplay:10.37,2013-03-23 07:25:00,
2013-03-23 03:30:00,28.4,23.0,29.99,SSE,161,0.0,0.0,80,0.00,CLR,,0.00,WeatherDisplay:10.37,2013-03-23 07:30:00,
2013-03-23 03:35:00,27.9,22.7,29.98,SSE,160,0.6,0.0,81,0.00,,CLR,0.00,VWS V14.01,2013-03-23 07:35:00,
2013-03-23 03:40:00,27.8,22.7,29.98,SSE,160,0.6,0.0,81,0.00,,CLR,0.00,VWS V14.01,2013-03-23 07:40:00,
2013-03-23 03:45:00,27.8,22.8,29.98,SSE,160,0.6,0.0,81,0.00,,CLR,0.00,VWS V14.01,2013-03-23 07:45:00,
2013-03-23 03:50:00,27.7,22.6,29.98,SSE,161,0.0,0.0,81,0.00,CLR,,0.00,WeatherDisplay:10.37,2013-03-23 07:50:00,
2013-03-23 03:55:00,27.5,22.6,29.98,SSE,160,0.6,0.0,82,0.00,,CLR,0.00,VWS V14.01,2013-03-23 07:55:00,
2013-03-23 04:00:00,27.3,22.5,29.98,SSE,160,0.6,0.0,82,0.00,,CLR,0.00,VWS V14.01,2013-03-23 08:00:00,
2013-03-23 04:05:00,27.1,22.3,29.98,SSE,161,0.0,0.0,82,0.00,CLR,,0.00,WeatherDisplay:10.37,2013-03-23 08:05:00,
2013-03-23 04:10:00,27.3,22.7,29.97,SSE,160,0.6,0.0,82,0.00,,CLR,0.00,VWS V14.01,2013-03-23 08:10:00,
2013-03-23 04:15:00,27.0,22.5,29.97,SSE,161,0.0,0.0,83,0.00,CLR,,0.00,WeatherDisplay:10.37,2013-03-23 08:15:00,
2013-03-23 04:20:00,26.7,22.2,29.97,SSE,161,0.0,0.0,83,0.00,CLR,,0.00,WeatherDisplay:10.37,2013-03-23 08:20:00,
2013-03-23 04:25:00,26.8,22.5,29.97,SSE,160,0.6,0.0,84,0.00,,CLR,0.00,VWS V14.01,2013-03-23 08:25:00,
2013-03-23 04:30:00,26.7,22.5,29.97,SSE,161,0.0,0.0,84,0.00,CLR,,0.00,WeatherDisplay:10.37,2013-03-23 08:30:00,
2013-03-23 04:35:00,26.5,22.5,29.97,SSE,160,0.6,0.0,84,0.00,,CLR,0.00,VWS V14.01,2013-03-23 08:35:00,
2013-03-23 04:40:00,26.6,22.6,29.98,SSE,160,0.6,0.0,85,0.00,,CLR,0.00,VWS V14.01,2013-03-23 08:40:00,
2013-03-23 04:45:00,26.4,22.5,29.98,SSE,161,0.0,0.0,85,0.00,CLR,,0.00,WeatherDisplay:10.37,2013-03-23 08:45:00,
2013-03-23 04:49:00,26.4,22.5,29.98,SSE,160,0.6,0.0,85,0.00,,CLR,0.00,VWS V14.01,2013-03-23 08:49:00,
2013-03-23 04:54:00,26.4,22.8,29.98,SSE,161,0.0,0.0,86,0.00,CLR,,0.00,WeatherDisplay:10.37,2013-03-23 08:54:00,
2013-03-23 04:59:00,26.2,22.5,29.98,SSE,160,0.6,0.0,86,0.00,,CLR,0.00,VWS V14.01,2013-03-23 08:59:00,
2013-03-23 05:04:00,26.4,22.8,29.98,SSE,160,0.6,0.0,86,0.00,,CLR,0.00,VWS V14.01,2013-03-23 09:04:00,
2013-03-23 05:09:00,26.3,23.0,29.98,SSE,161,0.0,0.0,87,0.00,CLR,,0.00,WeatherDisplay:10.37,2013-03-23 09:09:00,
2013-03-23 05:14:00,26.5,23.1,29.98,SSE,160,0.6,0.0,87,0.00,,CLR,0.00,VWS V14.01,2013-03-23 09:14:00,
2013-03-23 05:19:00,26.4,23.1,29.98,SSE,161,0.0,0.0,87,0.00,CLR,,0.00,WeatherDisplay:10.37,2013-03-23 09:19:00,
2013-03-23 05:24:00,26.3,23.0,29.98,SSE,160,0.6,0.0,87,0.00,,CLR,0.00,VWS V14.01,2013-03-23 09:24:00,
2013-03-23 05:29:00,26.2,23.1,29.98,SSE,160,0.6,0.0,88,0.00,,CLR,0.00,VWS V14.01,2013-03-23 09:29:00,
2013-03-23 05:34:00,26.0,22.9,29.98,SSE,161,0.0,0.0,88,0.00,CLR,,0.00,WeatherDisplay:10.37,2013-03-23 09:34:00,
2013-03-23 05:39:00,26.1,23.0,29.98,SSE,161,0.0,0.0,88,0.00,CLR,,0.00,WeatherDisplay:10.37,2013-03-23 09:39:00,
2013-03-23 05:44:00,25.8,22.8,29.97,SSE,160,0.6,0.0,88,0.00,,CLR,0.00,VWS V14.01,2013-03-23 09:44:00,
2013-03-23 05:49:00,25.4,22.4,29.97,SSE,160,0.6,0.0,88,0.00,,CLR,0.00,VWS V14.01,2013-03-23 09:49:00,
2013-03-23 05:54:00,25.0,22.2,29.97,SSE,161,0.0,0.0,89,0.00,CLR,,0.00,WeatherDisplay:10.37,2013-03-23 09:54:00,
2013-03-23 05:59:00,24.7,22.2,29.97,SSE,161,0.0,0.0,90,0.00,CLR,,0.00,WeatherDisplay:10.37,2013-03-23 09:59:00,
2013-03-23 06:04:00,24.4,22.2,29.97,SSE,161,0.0,0.0,91,0.00,CLR,,0.00,WeatherDisplay:10.37,2013-03-23 10:04:00,
2013-03-23 06:09:00,24.1,22.7,29.97,SSE,160,0.6,0.0,94,0.00,,CLR,0.00,VWS V14.01,2013-03-23 10:09:00,
2013-03-23 06:14:00,24.0,22.8,29.97,NE,53,0.8,0.0,95,0.00,,CLR,0.00,VWS V14.01,2013-03-23 10:14:00,
2013-03-23 06:19:00,24.2,22.8,29.97,NE,53,0.8,1.9,94,0.00,,CLR,0.00,VWS V14.01,2013-03-23 10:19:00,
2013-03-23 06:24:00,24.4,22.9,29.97,NE,53,0.8,0.0,94,0.00,,CLR,0.00,VWS V14.01,2013-03-23 10:24:00,
2013-03-23 06:29:00,24.7,23.2,29.97,NE,54,0.0,0.0,94,0.00,CLR,,0.00,WeatherDisplay:10.37,2013-03-23 10:29:00,
2013-03-23 06:34:00,24.8,23.3,29.97,NE,53,0.8,0.0,94,0.00,,CLR,0.00,VWS V14.01,2013-03-23 10:34:00,
2013-03-23 06:39:00,24.9,23.4,29.97,NE,54,0.0,0.0,94,0.00,CLR,,0.00,WeatherDisplay:10.37,2013-03-23 10:39:00,
2013-03-23 06:44:00,24.9,23.4,29.98,NE,53,0.8,0.0,94,0.00,,CLR,0.00,VWS V14.01,2013-03-23 10:44:00,
2013-03-23 06:49:00,25.0,23.5,29.99,NE,54,0.0,0.0,94,0.00,CLR,,0.00,WeatherDisplay:10.37,2013-03-23 10:49:00,
2013-03-23 06:54:00,24.7,23.2,29.99,NE,54,0.0,0.0,94,0.00,CLR,,0.00,WeatherDisplay:10.37,2013-03-23 10:54:00,
2013-03-23 06:59:00,24.6,23.2,29.99,NE,53,0.8,0.0,95,0.00,,CLR,0.00,VWS V14.01,2013-03-23 10:59:00,
2013-03-23 07:04:00,24.4,23.1,29.99,NE,53,0.8,0.0,95,0.00,,CLR,0.00,VWS V14.01,2013-03-23 11:04:00,
2013-03-23 07:09:00,24.4,23.2,29.99,NE,53,0.8,0.0,95,0.00,,CLR,0.00,VWS V14.01,2013-03-23 11:09:00,
2013-03-23 07:14:00,24.3,23.0,30.00,NE,53,0.8,0.0,95,0.00,,CLR,0.00,VWS V14.01,2013-03-23 11:14:00,
2013-03-23 07:19:00,24.0,22.8,30.00,NE,53,0.8,0.0,95,0.00,,CLR,0.00,VWS V14.01,2013-03-23 11:19:00,
2013-03-23 07:24:00,23.6,22.6,30.00,NE,54,0.0,0.0,96,0.00,CLR,,0.00,WeatherDisplay:10.37,2013-03-23 11:24:00,
2013-03-23 07:29:00,23.0,22.0,29.99,NE,54,0.0,0.0,96,0.00,CLR,,0.00,WeatherDisplay:10.37,2013-03-23 11:29:00,
2013-03-23 07:34:00,23.1,22.2,29.99,NE,53,0.8,0.0,96,0.00,,CLR,0.00,VWS V14.01,2013-03-23 11:34:00,
2013-03-23 07:39:00,23.0,22.0,29.99,NE,54,0.0,0.0,96,0.00,CLR,,0.00,WeatherDisplay:10.37,2013-03-23 11:39:00,
2013-03-23 07:44:00,23.1,22.3,30.00,NE,53,0.8,0.0,97,0.00,,CLR,0.00,VWS V14.01,2013-03-23 11:44:00,
2013-03-23 07:49:00,23.3,22.5,30.00,NE,53,0.8,0.0,97,0.00,,CLR,0.00,VWS V14.01,2013-03-23 11:49:00,
2013-03-23 07:54:00,23.7,23.0,30.00,NE,54,0.0,0.0,97,0.00,CLR,,0.00,WeatherDisplay:10.37,2013-03-23 11:54:00,
2013-03-23 07:59:00,24.2,23.5,30.00,NE,54,0.0,0.0,97,0.00,CLR,,0.00,WeatherDisplay:10.37,2013-03-23 11:59:00,
2013-03-23 08:04:00,24.6,23.9,30.00,NE,53,0.8,0.0,97,0.00,,SCT250,0.00,VWS V14.01,2013-03-23 12:04:00,
2013-03-23 08:09:00,24.9,23.9,30.00,NE,54,0.0,0.0,96,0.00,SCT,,0.00,WeatherDisplay:10.37,2013-03-23 12:09:00,
2013-03-23 08:14:00,25.2,24.2,30.00,NE,54,0.0,0.0,96,0.00,SCT,,0.00,WeatherDisplay:10.37,2013-03-23 12:14:00,
2013-03-23 08:19:00,25.4,24.4,30.00,NE,54,0.0,0.0,96,0.00,SCT,,0.00,WeatherDisplay:10.37,2013-03-23 12:19:00,
2013-03-23 08:24:00,25.7,24.7,30.01,NE,54,0.0,0.0,96,0.00,SCT,,0.00,WeatherDisplay:10.37,2013-03-23 12:24:00,
2013-03-23 08:29:00,26.0,25.0,30.01,NE,54,0.0,0.0,96,0.00,SCT,,0.00,WeatherDisplay:10.37,2013-03-23 12:29:00,
2013-03-23 08:34:00,26.5,25.3,30.01,NE,53,0.8,0.0,95,0.00,,SCT250,0.00,VWS V14.01,2013-03-23 12:34:00,
2013-03-23 08:39:00,26.7,25.4,30.01,NE,53,0.8,0.0,95,0.00,,SCT250,0.00,VWS V14.01,2013-03-23 12:39:00,
2013-03-23 08:44:00,26.9,25.4,30.01,SSW,198,3.5,3.5,94,0.00,SCT,,0.00,WeatherDisplay:10.37,2013-03-23 12:44:00,
2013-03-23 08:49:00,27.2,25.7,30.02,SW,220,1.1,1.1,94,0.00,SCT,,0.00,WeatherDisplay:10.37,2013-03-23 12:49:00,
2013-03-23 08:54:00,27.4,25.6,30.02,South,176,2.3,0.0,93,0.00,SCT,,0.00,WeatherDisplay:10.37,2013-03-23 12:54:00,
2013-03-23 08:59:00,27.8,26.0,30.02,West,263,0.7,4.7,93,0.00,,,0.00,VWS V14.01,2013-03-23 12:59:00,
2013-03-23 09:04:00,27.8,25.5,30.02,West,271,6.9,6.9,91,0.00,BKN,,0.00,WeatherDisplay:10.37,2013-03-23 13:04:00,
2013-03-23 09:09:00,28.1,26.1,30.02,SSW,201,1.6,8.0,92,0.00,,,0.00,VWS V14.01,2013-03-23 13:09:00,
2013-03-23 09:14:00,28.3,26.3,30.02,WSW,249,1.2,3.4,92,0.00,,,0.00,VWS V14.01,2013-03-23 13:14:00,
2013-03-23 09:19:00,28.4,26.4,30.02,SSW,200,2.0,5.6,92,0.00,,,0.00,VWS V14.01,2013-03-23 13:19:00,
2013-03-23 09:24:00,28.9,26.9,30.02,SSW,205,0.5,8.3,92,0.00,,,0.00,VWS V14.01,2013-03-23 13:24:00,
2013-03-23 09:29:00,29.2,26.8,30.02,SSW,210,0.4,1.1,91,0.00,,,0.00,VWS V14.01,2013-03-23 13:29:00,
2013-03-23 09:34:00,29.6,27.0,30.03,South,182,0.0,0.0,90,0.00,BKN,,0.00,WeatherDisplay:10.37,2013-03-23 13:34:00,
2013-03-23 09:39:00,29.9,27.3,30.03,South,182,0.0,0.0,90,0.00,BKN,,0.00,WeatherDisplay:10.37,2013-03-23 13:39:00,
2013-03-23 09:44:00,30.3,27.4,30.03,SW,224,2.3,2.3,89,0.00,BKN,,0.00,WeatherDisplay:10.37,2013-03-23 13:44:00,
2013-03-23 09:49:00,30.7,27.6,30.03,South,175,2.3,2.3,88,0.00,BKN,,0.00,WeatherDisplay:10.37,2013-03-23 13:49:00,
2013-03-23 09:54:00,31.0,27.9,30.03,SW,226,3.5,3.5,88,0.00,BKN,,0.00,WeatherDisplay:10.37,2013-03-23 13:54:00,
2013-03-23 09:59:00,30.7,27.3,30.03,West,278,6.9,6.9,87,0.00,BKN,,0.00,WeatherDisplay:10.37,2013-03-23 13:59:00,
2013-03-23 10:04:00,30.9,27.6,30.03,West,260,3.8,7.6,87,0.00,,,0.00,VWS V14.01,2013-03-23 14:04:00,
2013-03-23 10:09:00,31.4,27.8,30.03,WSW,249,8.0,8.0,86,0.00,,,0.00,VWS V14.01,2013-03-23 14:09:00,
2013-03-23 10:14:00,31.7,28.0,30.03,West,277,0.5,8.0,86,0.00,,,0.00,VWS V14.01,2013-03-23 14:14:00,
2013-03-23 10:19:00,32.1,28.3,30.03,West,277,0.5,3.8,86,0.00,,,0.00,VWS V14.01,2013-03-23 14:19:00,
2013-03-23 10:24:00,32.4,27.4,30.03,WNW,300,2.4,0.0,82,0.00,,,0.00,VWS V14.01,2013-03-23 14:24:00,
2013-03-23 10:29:00,32.5,27.0,30.03,West,267,9.2,9.2,80,0.00,BKN,,0.00,WeatherDisplay:10.37,2013-03-23 14:29:00,
2013-03-23 10:34:00,32.8,27.0,30.03,SW,226,2.9,9.3,79,0.00,,,0.00,VWS V14.01,2013-03-23 14:34:00,
2013-03-23 10:39:00,32.8,26.1,30.03,SW,227,0.0,0.0,76,0.00,BKN,,0.00,WeatherDisplay:10.37,2013-03-23 14:39:00,
2013-03-23 10:44:00,32.9,26.5,30.03,SW,227,0.0,0.0,77,0.00,BKN,,0.00,WeatherDisplay:10.37,2013-03-23 14:44:00,
2013-03-23 10:49:00,33.2,26.5,30.03,SW,226,2.9,0.0,76,0.00,,,0.00,VWS V14.01,2013-03-23 14:49:00,
2013-03-23 10:54:00,33.1,26.0,30.03,West,272,9.2,9.2,75,0.00,BKN,,0.00,WeatherDisplay:10.37,2013-03-23 14:54:00,
2013-03-23 10:59:00,33.2,26.5,30.03,West,270,6.9,6.9,76,0.00,BKN,,0.00,WeatherDisplay:10.37,2013-03-23 14:59:00,
2013-03-23 11:04:00,33.6,26.2,30.03,WSW,248,6.9,6.9,74,0.00,BKN,,0.00,WeatherDisplay:10.37,2013-03-23 15:04:00,
2013-03-23 11:09:00,33.7,25.3,30.03,WSW,251,8.1,8.1,71,0.00,BKN,,0.00,WeatherDisplay:10.37,2013-03-23 15:09:00,
2013-03-23 11:14:00,34.2,26.4,30.03,WSW,241,0.0,0.0,73,0.00,BKN,,0.00,WeatherDisplay:10.37,2013-03-23 15:14:00,
2013-03-23 11:19:00,34.4,25.6,30.04,North,360,0.0,0.0,70,0.00,BKN,,0.00,WeatherDisplay:10.37,2013-03-23 15:19:00,
2013-03-23 11:24:00,34.4,26.3,30.04,North,360,0.0,0.0,72,0.00,BKN,,0.00,WeatherDisplay:10.37,2013-03-23 15:24:00,
2013-03-23 11:29:00,34.8,27.4,30.03,North,359,0.2,0.4,74,0.00,,BKN028,0.00,VWS V14.01,2013-03-23 15:29:00,
2013-03-23 11:34:00,34.4,25.7,30.03,North,359,1.2,0.0,70,0.00,,BKN028,0.00,VWS V14.01,2013-03-23 15:34:00,
2013-03-23 11:39:00,34.5,26.0,30.03,North,359,1.2,1.2,71,0.00,,BKN028,0.00,VWS V14.01,2013-03-23 15:39:00,
2013-03-23 11:44:00,35.1,26.6,30.03,North,360,0.0,0.0,71,0.00,BKN,,0.00,WeatherDisplay:10.37,2013-03-23 15:44:00,
2013-03-23 11:49:00,35.6,26.8,30.04,North,360,0.0,0.0,70,0.00,BKN,,0.00,WeatherDisplay:10.37,2013-03-23 15:49:00,
2013-03-23 11:54:00,35.6,26.8,30.04,North,360,0.0,0.0,70,0.00,BKN,,0.00,WeatherDisplay:10.37,2013-03-23 15:54:00,
2013-03-23 11:59:00,35.6,26.8,30.03,North,359,0.6,0.0,70,0.00,,BKN028,0.00,VWS V14.01,2013-03-23 15:59:00,
2013-03-23 12:04:00,36.0,27.5,30.03,North,360,0.0,0.0,71,0.00,BKN,,0.00,WeatherDisplay:10.37,2013-03-23 16:04:00,
2013-03-23 12:09:00,35.9,28.4,30.03,North,360,0.0,0.0,74,0.00,BKN,,0.00,WeatherDisplay:10.37,2013-03-23 16:09:00,
2013-03-23 12:14:00,35.9,28.2,30.03,North,359,0.6,0.0,74,0.00,,BKN031,0.00,VWS V14.01,2013-03-23 16:14:00,
2013-03-23 12:19:00,36.7,28.4,30.03,South,170,4.8,0.0,72,0.00,,BKN031,0.00,VWS V14.01,2013-03-23 16:19:00,
2013-03-23 12:24:00,36.9,27.0,30.03,West,264,4.1,9.8,67,0.00,,BKN031,0.00,VWS V14.01,2013-03-23 16:24:00,
2013-03-23 12:29:00,36.3,25.7,30.03,SW,232,6.9,6.9,65,0.00,BKN,,0.00,WeatherDisplay:10.37,2013-03-23 16:29:00,
2013-03-23 12:34:00,37.1,27.2,30.03,NW,308,8.1,8.1,67,0.00,BKN,,0.00,WeatherDisplay:10.37,2013-03-23 16:34:00,
2013-03-23 12:39:00,37.3,28.2,30.03,WSW,240,6.0,7.5,69,0.00,,BKN034,0.00,VWS V14.01,2013-03-23 16:39:00,
2013-03-23 12:44:00,37.4,27.4,30.03,SSW,202,6.3,7.6,67,0.00,,BKN034,0.00,VWS V14.01,2013-03-23 16:44:00,
2013-03-23 12:49:00,37.1,26.8,30.03,WNW,295,9.2,9.2,66,0.00,BKN,,0.00,WeatherDisplay:10.37,2013-03-23 16:49:00,
2013-03-23 12:54:00,37.0,27.4,30.04,WNW,299,7.6,7.6,68,0.00,BKN,,0.00,WeatherDisplay:10.37,2013-03-23 16:54:00,
2013-03-23 12:59:00,37.4,27.8,30.03,SSW,210,3.2,9.6,68,0.00,,BKN028,0.00,VWS V14.01,2013-03-23 16:59:00,
2013-03-23 13:04:00,37.6,28.5,30.03,West,278,8.1,8.1,70,0.00,,FEW028,0.00,VWS V14.01,2013-03-23 17:04:00,
2013-03-23 13:09:00,36.8,28.8,30.03,WNW,290,6.0,9.2,72,0.00,,FEW028,0.00,VWS V14.01,2013-03-23 17:09:00,
2013-03-23 13:14:00,36.5,28.0,30.03,NW,308,5.8,5.8,71,0.00,BKN,,0.00,WeatherDisplay:10.37,2013-03-23 17:14:00,
2013-03-23 13:19:00,36.7,28.5,30.03,West,275,1.1,1.1,72,0.00,BKN,,0.00,WeatherDisplay:10.37,2013-03-23 17:19:00,
2013-03-23 13:24:00,37.4,28.9,30.03,NW,322,8.1,8.1,71,0.00,BKN,,0.00,WeatherDisplay:10.37,2013-03-23 17:24:00,
2013-03-23 13:29:00,37.7,28.8,30.03,WNW,292,9.2,9.2,70,0.00,,FEW028,0.00,VWS V14.01,2013-03-23 17:29:00,
2013-03-23 13:34:00,37.4,28.3,30.04,NW,318,1.4,9.8,69,0.00,,FEW028,0.00,VWS V14.01,2013-03-23 17:34:00,
2013-03-23 13:39:00,37.9,28.3,30.04,NW,314,2.2,9.0,68,0.00,,FEW028,0.00,VWS V14.01,2013-03-23 17:39:00,
2013-03-23 13:44:00,37.9,28.5,30.03,NW,304,4.4,8.4,68,0.00,,FEW028,0.00,VWS V14.01,2013-03-23 17:44:00,
2013-03-23 13:49:00,37.4,28.2,30.03,NNW,343,6.9,6.9,69,0.00,BKN,,0.00,WeatherDisplay:10.37,2013-03-23 17:49:00,
2013-03-23 13:54:00,37.0,27.9,30.03,West,277,7.0,7.3,69,0.00,,FEW028,0.00,VWS V14.01,2013-03-23 17:54:00,
2013-03-23 13:59:00,37.6,27.9,30.03,NW,305,4.3,10.7,68,0.00,,CLR,0.00,VWS V14.01,2013-03-23 17:59:00,
2013-03-23 14:04:00,37.9,28.3,30.03,WNW,295,12.7,12.7,68,0.00,FEW,,0.00,WeatherDisplay:10.37,2013-03-23 18:04:00,
2013-03-23 14:09:00,37.8,28.2,30.03,SW,227,6.9,6.9,68,0.00,FEW,,0.00,WeatherDisplay:10.37,2013-03-23 18:09:00,
2013-03-23 14:14:00,38.3,28.0,30.03,NNW,330,3.3,7.3,66,0.00,,CLR,0.00,VWS V14.01,2013-03-23 18:14:00,
2013-03-23 14:19:00,38.2,27.8,30.03,WSW,258,10.6,10.6,66,0.00,FEW,,0.00,WeatherDisplay:10.37,2013-03-23 18:19:00,
2013-03-23 14:24:00,38.4,28.0,30.03,South,178,6.9,6.9,66,0.00,FEW,,0.00,WeatherDisplay:10.37,2013-03-23 18:24:00,
2013-03-23 14:29:00,38.5,28.1,30.02,WNW,294,11.5,11.5,66,0.00,FEW,,0.00,WeatherDisplay:10.37,2013-03-23 18:29:00,
2013-03-23 14:34:00,38.3,27.9,30.02,West,275,11.5,11.5,66,0.00,FEW,,0.00,WeatherDisplay:10.37,2013-03-23 18:34:00,
2013-03-23 14:39:00,38.3,27.2,30.02,NW,325,9.2,9.2,64,0.00,FEW,,0.00,WeatherDisplay:10.37,2013-03-23 18:39:00,
2013-03-23 14:44:00,38.8,28.4,30.02,SSW,212,4.6,4.6,66,0.00,FEW,,0.00,WeatherDisplay:10.37,2013-03-23 18:44:00,
2013-03-23 14:49:00,39.4,28.4,30.02,NNW,345,7.5,9.8,64,0.00,,CLR,0.00,VWS V14.01,2013-03-23 18:49:00,
2013-03-23 14:54:00,38.9,29.0,30.02,West,262,9.1,12.1,67,0.00,,CLR,0.00,VWS V14.01,2013-03-23 18:54:00,
2013-03-23 14:59:00,39.1,29.1,30.02,NW,322,6.9,6.9,67,0.00,FEW,,0.00,WeatherDisplay:10.37,2013-03-23 18:59:00,
2013-03-23 15:04:00,39.4,27.8,30.02,WNW,295,10.4,10.4,63,0.00,BKN,,0.00,WeatherDisplay:10.37,2013-03-23 19:04:00,
2013-03-23 15:09:00,39.2,28.7,30.02,West,260,6.5,10.5,66,0.00,,FEW026,0.00,VWS V14.01,2013-03-23 19:09:00,
2013-03-23 15:14:00,39.6,28.0,30.03,West,280,6.9,6.9,63,0.00,BKN,,0.00,WeatherDisplay:10.37,2013-03-23 19:14:00,
2013-03-23 15:19:00,39.1,27.6,30.02,West,260,10.4,10.4,63,0.00,BKN,,0.00,WeatherDisplay:10.37,2013-03-23 19:19:00,
2013-03-23 15:24:00,38.9,27.8,30.02,WNW,298,8.1,8.1,64,0.00,BKN,,0.00,WeatherDisplay:10.37,2013-03-23 19:24:00,
2013-03-23 15:29:00,39.0,28.2,30.02,WNW,301,6.9,6.9,65,0.00,BKN,,0.00,WeatherDisplay:10.37,2013-03-23 19:29:00,
2013-03-23 15:34:00,39.2,27.7,30.02,West,281,10.4,10.4,63,0.00,BKN,,0.00,WeatherDisplay:10.37,2013-03-23 19:34:00,
2013-03-23 15:39:00,38.9,27.8,30.02,West,278,6.9,6.9,64,0.00,BKN,,0.00,WeatherDisplay:10.37,2013-03-23 19:39:00,
2013-03-23 15:44:00,39.3,28.7,30.02,WNW,287,3.8,9.3,65,0.00,,FEW026,0.00,VWS V14.01,2013-03-23 19:44:00,
2013-03-23 15:49:00,39.7,27.7,30.02,West,278,8.1,8.1,62,0.00,BKN,,0.00,WeatherDisplay:10.37,2013-03-23 19:49:00,
2013-03-23 15:54:00,39.8,29.0,30.02,NNW,339,10.4,10.4,65,0.00,BKN,,0.00,WeatherDisplay:10.37,2013-03-23 19:54:00,
2013-03-23 15:59:00,40.1,28.5,30.02,North,356,10.4,10.4,63,0.00,BKN,,0.00,WeatherDisplay:10.37,2013-03-23 19:59:00,
2013-03-23 16:04:00,39.9,28.3,30.01,WNW,298,11.5,11.5,63,0.00,FEW,,0.00,WeatherDisplay:10.37,2013-03-23 20:04:00,
2013-03-23 16:09:00,39.8,28.4,30.01,WNW,285,4.8,12.0,63,0.00,,FEW026,0.00,VWS V14.01,2013-03-23 20:09:00,
2013-03-23 16:14:00,39.5,28.0,30.02,WNW,284,7.7,10.2,63,0.00,,FEW026,0.00,VWS V14.01,2013-03-23 20:14:00,
2013-03-23 16:19:00,39.7,27.7,30.02,West,271,6.9,6.9,62,0.00,FEW,,0.00,WeatherDisplay:10.37,2013-03-23 20:19:00,
2013-03-23 16:24:00,39.3,27.8,30.02,West,271,2.7,8.8,63,0.00,,FEW026,0.00,VWS V14.01,2013-03-23 20:24:00,
2013-03-23 16:29:00,39.5,28.0,30.01,WNW,287,7.2,7.2,63,0.00,,FEW026,0.00,VWS V14.01,2013-03-23 20:29:00,
2013-03-23 16:34:00,39.7,27.7,30.01,NNW,333,5.8,5.8,62,0.00,FEW,,0.00,WeatherDisplay:10.37,2013-03-23 20:34:00,
2013-03-23 16:39:00,40.0,27.2,30.01,WNW,287,4.3,8.7,60,0.00,,FEW026,0.00,VWS V14.01,2013-03-23 20:39:00,
2013-03-23 16:44:00,40.1,26.9,30.01,West,264,8.1,8.1,59,0.00,FEW,,0.00,WeatherDisplay:10.37,2013-03-23 20:44:00,
2013-03-23 16:49:00,40.1,28.6,30.02,NNW,338,7.6,8.3,63,0.00,,FEW026,0.00,VWS V14.01,2013-03-23 20:49:00,
2013-03-23 16:54:00,39.9,28.8,30.02,NW,321,7.5,9.3,64,0.00,,FEW026,0.00,VWS V14.01,2013-03-23 20:54:00,
2013-03-23 16:59:00,40.0,28.8,30.02,NW,315,9.2,9.2,64,0.00,FEW,,0.00,WeatherDisplay:10.37,2013-03-23 20:59:00,
2013-03-23 17:04:00,40.2,29.0,30.02,West,280,10.4,10.4,64,0.00,FEW,,0.00,WeatherDisplay:10.37,2013-03-23 21:04:00,
2013-03-23 17:09:00,40.2,28.6,30.02,North,354,10.4,10.4,63,0.00,FEW,,0.00,WeatherDisplay:10.37,2013-03-23 21:09:00,
2013-03-23 17:14:00,40.3,28.3,30.02,WNW,284,8.0,10.9,62,0.00,,FEW026,0.00,VWS V14.01,2013-03-23 21:14:00,
2013-03-23 17:19:00,39.9,28.4,30.01,WNW,294,5.6,9.5,63,0.00,,FEW026,0.00,VWS V14.01,2013-03-23 21:19:00,
2013-03-23 17:24:00,40.1,28.5,30.01,WNW,287,5.3,5.3,63,0.00,FEW,,0.00,WeatherDisplay:10.37,2013-03-23 21:24:00,
2013-03-23 17:29:00,40.1,28.5,30.01,NW,318,9.2,9.2,63,0.00,FEW,,0.00,WeatherDisplay:10.37,2013-03-23 21:29:00,
2013-03-23 17:34:00,40.2,29.3,30.01,NW,318,6.7,9.6,65,0.00,,FEW026,0.00,VWS V14.01,2013-03-23 21:34:00,
2013-03-23 17:39:00,40.4,29.9,30.01,North,3,5.8,5.8,66,0.00,FEW,,0.00,WeatherDisplay:10.37,2013-03-23 21:39:00,
2013-03-23 17:44:00,40.0,29.3,30.01,NNW,329,4.2,7.5,65,0.00,,FEW026,0.00,VWS V14.01,2013-03-23 21:44:00,
2013-03-23 17:49:00,39.7,29.3,30.01,NW,319,6.9,6.9,66,0.00,FEW,,0.00,WeatherDisplay:10.37,2013-03-23 21:49:00,
2013-03-23 17:54:00,39.4,28.8,30.01,NW,307,5.4,10.0,65,0.00,,FEW026,0.00,VWS V14.01,2013-03-23 21:54:00,
2013-03-23 17:59:00,39.4,29.7,30.00,NW,312,8.1,8.1,68,0.00,FEW,,0.00,WeatherDisplay:10.37,2013-03-23 21:59:00,
2013-03-23 18:04:00,38.9,29.9,30.00,NW,313,12.7,12.7,70,0.00,CLR,,0.00,WeatherDisplay:10.37,2013-03-23 22:04:00,
2013-03-23 18:09:00,38.6,29.7,30.00,NW,318,4.8,12.9,70,0.00,,CLR,0.00,VWS V14.01,2013-03-23 22:09:00,
2013-03-23 18:14:00,38.5,29.9,30.00,NNW,332,9.3,10.9,71,0.00,,CLR,0.00,VWS V14.01,2013-03-23 22:14:00,
2013-03-23 18:19:00,38.3,29.4,30.00,NNW,332,9.2,9.2,70,0.00,CLR,,0.00,WeatherDisplay:10.37,2013-03-23 22:19:00,
2013-03-23 18:24:00,38.0,29.3,30.00,NW,322,7.1,11.6,71,0.00,,CLR,0.00,VWS V14.01,2013-03-23 22:24:00,
2013-03-23 18:29:00,38.1,29.6,30.00,NNW,330,4.2,12.6,71,0.00,,CLR,0.00,VWS V14.01,2013-03-23 22:29:00,
2013-03-23 18:34:00,37.9,29.7,30.01,NNW,336,6.9,6.9,72,0.00,CLR,,0.00,WeatherDisplay:10.37,2013-03-23 22:34:00,
2013-03-23 18:39:00,37.6,29.3,30.01,NW,322,6.6,9.3,72,0.00,,CLR,0.00,VWS V14.01,2013-03-23 22:39:00,
2013-03-23 18:44:00,37.7,29.5,30.00,NW,320,5.8,5.8,72,0.00,CLR,,0.00,WeatherDisplay:10.37,2013-03-23 22:44:00,
2013-03-23 18:49:00,37.7,29.7,30.01,WNW,295,5.8,7.8,73,0.00,,CLR,0.00,VWS V14.01,2013-03-23 22:49:00,
2013-03-23 18:54:00,37.2,29.8,30.01,NNW,329,6.2,9.0,74,0.00,,CLR,0.00,VWS V14.01,2013-03-23 22:54:00,
2013-03-23 18:59:00,36.8,29.9,30.00,NNW,336,6.9,6.9,76,0.00,CLR,,0.00,WeatherDisplay:10.37,2013-03-23 22:59:00,
2013-03-23 19:04:00,36.4,29.9,30.00,NNW,329,6.9,6.9,77,0.00,CLR,,0.00,WeatherDisplay:10.37,2013-03-23 23:04:00,
2013-03-23 19:09:00,36.2,30.0,30.00,North,357,5.8,5.8,78,0.00,CLR,,0.00,WeatherDisplay:10.37,2013-03-23 23:09:00,
2013-03-23 19:14:00,35.7,29.8,30.00,NW,308,9.2,9.2,79,0.00,CLR,,0.00,WeatherDisplay:10.37,2013-03-23 23:14:00,
2013-03-23 19:19:00,35.5,29.6,30.00,NW,308,6.9,6.9,79,0.00,CLR,,0.00,WeatherDisplay:10.37,2013-03-23 23:19:00,
2013-03-23 19:24:00,35.3,29.7,30.01,NNW,328,3.4,7.0,80,0.00,,CLR,0.00,VWS V14.01,2013-03-23 23:24:00,
2013-03-23 19:29:00,35.2,29.8,30.01,WNW,287,3.7,7.4,80,0.00,,CLR,0.00,VWS V14.01,2013-03-23 23:29:00,
2013-03-23 19:34:00,35.0,29.7,30.01,NNW,328,3.1,5.9,81,0.00,,CLR,0.00,VWS V14.01,2013-03-23 23:34:00,
2013-03-23 19:39:00,34.9,29.6,30.02,NW,322,0.8,6.2,81,0.00,,CLR,0.00,VWS V14.01,2013-03-23 23:39:00,
2013-03-23 19:44:00,34.7,29.5,30.02,NNW,333,4.6,4.6,81,0.00,CLR,,0.00,WeatherDisplay:10.37,2013-03-23 23:44:00,
2013-03-23 19:49:00,34.4,29.2,30.02,NW,323,5.8,5.8,81,0.00,CLR,,0.00,WeatherDisplay:10.37,2013-03-23 23:49:00,
2013-03-23 19:54:00,34.3,29.4,30.02,NW,323,4.6,4.6,82,0.00,CLR,,0.00,WeatherDisplay:10.37,2013-03-23 23:54:00,
2013-03-23 19:59:00,33.8,28.9,30.01,NNW,335,4.6,4.6,82,0.00,CLR,,0.00,WeatherDisplay:10.37,2013-03-23 23:59:00,
2013-03-23 20:04:00,33.4,28.8,30.02,NW,326,6.9,6.9,83,0.00,CLR,,0.00,WeatherDisplay:10.37,2013-03-24 00:04:00,
2013-03-23 20:09:00,33.1,28.5,30.02,NNW,338,4.9,6.8,83,0.00,,CLR,0.00,VWS V14.01,2013-03-24 00:09:00,
2013-03-23 20:14:00,32.7,28.1,30.02,NNW,328,6.9,6.9,83,0.00,CLR,,0.00,WeatherDisplay:10.37,2013-03-24 00:14:00,
2013-03-23 20:19:00,32.7,28.4,30.02,NNW,336,6.9,6.9,84,0.00,CLR,,0.00,WeatherDisplay:10.37,2013-03-24 00:19:00,
2013-03-23 20:24:00,32.2,27.8,30.02,North,359,4.4,6.6,84,0.00,,CLR,0.00,VWS V14.01,2013-03-24 00:24:00,
2013-03-23 20:29:00,32.1,27.8,30.02,NNE,24,5.8,5.8,84,0.00,CLR,,0.00,WeatherDisplay:10.37,2013-03-24 00:29:00,
2013-03-23 20:34:00,31.7,27.4,30.02,NNE,13,4.5,6.9,84,0.00,,CLR,0.00,VWS V14.01,2013-03-24 00:34:00,
2013-03-23 20:39:00,31.6,27.3,30.02,NNE,28,4.6,4.6,84,0.00,CLR,,0.00,WeatherDisplay:10.37,2013-03-24 00:39:00,
2013-03-23 20:44:00,31.7,27.7,30.02,NNW,346,2.5,6.8,85,0.00,,CLR,0.00,VWS V14.01,2013-03-24 00:44:00,
2013-03-23 20:49:00,31.5,27.5,30.02,North,353,5.8,5.8,85,0.00,CLR,,0.00,WeatherDisplay:10.37,2013-03-24 00:49:00,
2013-03-23 20:54:00,31.1,27.2,30.02,NNW,335,3.7,8.6,85,0.00,,CLR,0.00,VWS V14.01,2013-03-24 00:54:00,
2013-03-23 20:59:00,31.0,27.0,30.02,North,349,5.8,5.8,85,0.00,CLR,,0.00,WeatherDisplay:10.37,2013-03-24 00:59:00,
2013-03-23 21:04:00,30.8,27.1,30.02,NNW,329,6.9,6.9,86,0.00,CLR,,0.00,WeatherDisplay:10.37,2013-03-24 01:04:00,
2013-03-23 21:09:00,30.6,26.9,30.02,NNE,18,6.9,6.9,86,0.00,CLR,,0.00,WeatherDisplay:10.37,2013-03-24 01:09:00,
2013-03-23 21:14:00,30.6,26.9,30.02,NNW,340,6.9,6.9,86,0.00,CLR,,0.00,WeatherDisplay:10.37,2013-03-24 01:14:00,
2013-03-23 21:19:00,30.3,26.8,30.02,NNW,338,2.8,7.0,87,0.00,,CLR,0.00,VWS V14.01,2013-03-24 01:19:00,
2013-03-23 21:24:00,30.3,26.9,30.02,NNW,347,4.6,4.6,87,0.00,CLR,,0.00,WeatherDisplay:10.37,2013-03-24 01:24:00,
2013-03-23 21:29:00,30.3,26.6,30.02,North,359,5.8,5.8,86,0.00,CLR,,0.00,WeatherDisplay:10.37,2013-03-24 01:29:00,
2013-03-23 21:34:00,30.2,26.5,30.02,North,352,0.7,6.5,86,0.00,,CLR,0.00,VWS V14.01,2013-03-24 01:34:00,
2013-03-23 21:39:00,30.0,26.3,30.03,NNW,344,6.9,6.9,86,0.00,CLR,,0.00,WeatherDisplay:10.37,2013-03-24 01:39:00,
2013-03-23 21:44:00,30.1,26.4,30.03,North,357,4.6,4.6,86,0.00,CLR,,0.00,WeatherDisplay:10.37,2013-03-24 01:44:00,
2013-03-23 21:49:00,29.9,26.2,30.03,North,8,2.3,0.0,86,0.00,CLR,,0.00,WeatherDisplay:10.37,2013-03-24 01:49:00,
2013-03-23 21:54:00,29.8,26.1,30.03,North,8,5.8,5.8,86,0.00,CLR,,0.00,WeatherDisplay:10.37,2013-03-24 01:54:00,
2013-03-23 21:59:00,29.9,26.2,30.03,North,6,5.8,5.8,86,0.00,CLR,,0.00,WeatherDisplay:10.37,2013-03-24 01:59:00,
2013-03-23 22:04:00,29.7,26.0,30.03,North,352,0.0,0.0,86,0.00,CLR,,0.00,WeatherDisplay:10.37,2013-03-24 02:04:00,
2013-03-23 22:09:00,29.8,26.1,30.03,North,352,0.0,0.0,86,0.00,CLR,,0.00,WeatherDisplay:10.37,2013-03-24 02:09:00,
2013-03-23 22:14:00,29.6,26.0,30.03,North,353,2.9,0.0,86,0.00,,CLR,0.00,VWS V14.01,2013-03-24 02:14:00,
2013-03-23 22:19:00,29.6,25.9,30.03,North,11,6.2,7.0,86,0.00,,CLR,0.00,VWS V14.01,2013-03-24 02:19:00,
2013-03-23 22:24:00,29.7,26.0,30.03,North,8,4.6,4.6,86,0.00,CLR,,0.00,WeatherDisplay:10.37,2013-03-24 02:24:00,
2013-03-23 22:29:00,29.6,25.9,30.03,North,10,4.6,4.6,86,0.00,CLR,,0.00,WeatherDisplay:10.37,2013-03-24 02:29:00,
2013-03-23 22:34:00,29.4,26.0,30.03,NE,42,5.8,5.8,87,0.00,CLR,,0.00,WeatherDisplay:10.37,2013-03-24 02:34:00,
2013-03-23 22:39:00,29.3,25.9,30.03,North,349,5.8,5.8,87,0.00,CLR,,0.00,WeatherDisplay:10.37,2013-03-24 02:39:00,
2013-03-23 22:44:00,29.1,25.7,30.03,NE,37,6.9,6.9,87,0.00,CLR,,0.00,WeatherDisplay:10.37,2013-03-24 02:44:00,
2013-03-23 22:49:00,29.1,25.8,30.02,North,0,4.5,7.6,87,0.00,,CLR,0.00,VWS V14.01,2013-03-24 02:49:00,
2013-03-23 22:54:00,28.9,25.8,30.01,North,7,6.9,6.9,88,0.00,CLR,,0.00,WeatherDisplay:10.37,2013-03-24 02:54:00,
2013-03-23 22:59:00,29.0,25.9,30.01,NNE,13,8.1,8.1,88,0.00,CLR,,0.00,WeatherDisplay:10.37,2013-03-24 02:59:00,
2013-03-23 23:04:00,28.7,25.6,30.00,NNW,347,4.4,7.9,88,0.00,,CLR,0.00,VWS V14.01,2013-03-24 03:04:00,
2013-03-23 23:09:00,28.8,25.7,30.01,NE,41,5.8,5.8,88,0.00,CLR,,0.00,WeatherDisplay:10.37,2013-03-24 03:09:00,
2013-03-23 23:14:00,28.6,25.6,30.01,NE,41,2.9,9.6,88,0.00,,CLR,0.00,VWS V14.01,2013-03-24 03:14:00,
2013-03-23 23:19:00,28.7,25.7,30.00,NE,38,4.6,10.8,88,0.00,,CLR,0.00,VWS V14.01,2013-03-24 03:19:00,
2013-03-23 23:24:00,28.6,25.6,30.00,NNE,25,5.1,8.1,88,0.00,,CLR,0.00,VWS V14.01,2013-03-24 03:24:00,
2013-03-23 23:29:00,28.6,25.6,30.00,North,356,4.6,8.1,88,0.00,,CLR,0.00,VWS V14.01,2013-03-24 03:29:00,
2013-03-23 23:34:00,28.4,25.3,30.00,NNE,25,6.1,6.1,88,0.00,CLR,,0.00,WeatherDisplay:10.37,2013-03-24 03:34:00,
2013-03-23 23:39:00,28.4,25.5,29.99,North,7,5.6,6.3,89,0.00,,CLR,0.00,VWS V14.01,2013-03-24 03:39:00,
2013-03-23 23:44:00,28.4,25.6,29.99,NNE,32,6.9,6.9,89,0.00,CLR,,0.00,WeatherDisplay:10.37,2013-03-24 03:44:00,
2013-03-23 23:49:00,28.1,25.2,29.98,NE,35,4.9,7.5,89,0.00,,CLR,0.00,VWS V14.01,2013-03-24 03:49:00,
2013-03-23 23:54:00,28.2,25.4,29.99,NE,38,3.5,3.8,89,0.00,CLR,,0.00,WeatherDisplay:10.37,2013-03-24 03:54:00,
2013-03-23 23:59:00,28.1,25.3,29.98,NNE,28,3.1,8.0,89,0.00,,CLR,0.00,VWS V14.01,2013-03-24 03:59:00,